sat.trackr.live / text

‹ back to catalog

SHIYAN-9 (SY-9)

NORAD 47851 · 2021-019A

PAYLOAD ACTIVE UNKNOWN

§ Identity

Operator
Country
PRC
Launch date
2021-03-11
Launch site
WSC
Launch vehicle
Mass (kg)
RCS (m²)

External: N2YO · Heavens-Above · Gunter

§ Orbital elements

Epoch: 2026-09-20T18:25:16.544640Z

Period
1,436.14 min
Inclination
16.3217°
Eccentricity
0.0014399
Mean motion
1.00268592 rev/d
Perigee alt
35,726.8 km
Apogee alt
35,848.2 km
Semi-major
42,165.6 km
B*
0.0000e+0
RAAN
301.1976°
Arg perigee
20.7321°
Mean anomaly
100.7247°
Rev number
2,509

§ Raw data

SHIYAN-9 (SY-9)1 47851U 21019A   26263.76755260 -.00000229  00000+0  00000+0 0  99972 47851  16.3217 301.1976 0014399  20.7321 100.7247  1.00268592 25095

JSON: /api/v1/satellites/47851 · /tle

For live sub-satellite position, see the globe view (requires WebGL).

§ Visibility from observer

Set your observer location to see the next 7 days of passes ≥ 10°. The values pass through the URL so the page stays shareable.

No JS? Fill the form by hand. The geolocation button needs JavaScript.